[[{"header":{"parameterUnit":"m.s-1","parameterCategory":1,"la1":30.2991,"la2":30.254,"lo1":-89.0895,"lo2":-89.0444,"dy":0.0017,"dx":0.0017,"nx":28,"ny":28,"refTime":"2024-04-08T21:00:00:Z","depth":0,"parameterNumber":2,"parameterNumberName":"U-component_of_WINDS"},"data":[0,0,0,0,0,0,0,0,0,0,0,0,0,0,0,0,0,0,0,0,0,0,0,0,0,0,0,0,0,0,0,0,0,0,0,0,0,0,0,0,0,0,0,0,0,0,0,0,0,0,0,0,0,0,0,0,0,0,-4.7752,-4.7753,0,-4.7862,-4.7863,-4.7865,-4.7846,-4.7844,-4.7842,-4.784,-4.7951,-4.7955,-4.796,0,0,0,0,0,0,0,0,0,0,0,0,0,-4.7525,-4.7529,-4.7752,-4.7753,-4.7754,-4.7862,-4.7863,-4.7865,-4.7846,-4.7844,-4.7842,-4.7839,-4.7949,-4.7955,-4.796,0,0,0,0,0,0,0,0,0,0,0,0,0,-4.7628,-4.753,-4.7751,-4.7758,-4.776,-4.7862,-4.7864,-4.7865,-4.7847,-4.7844,-4.7841,-4.7838,-4.7947,-4.7954,-4.7961,-4.8062,0,0,-4.7983,-4.7986,0,0,0,0,0,0,0,0,-4.7622,-4.7636,-4.7756,-4.7758,-4.776,-4.7837,-4.7824,-4.7931,-4.7847,-4.7814,-4.784,-4.7837,-4.7915,-4.7925,-4.7951,-4.8067,-4.8072,-4.7983,-4.7988,-4.7991,-4.7993,0,0,0,0,0,0,0,-4.7615,-4.7631,-4.7795,-4.7758,-4.776,-4.7756,-4.7767,-4.7844,-4.7879,-4.7816,-4.7815,-4.7829,-4.7916,-4.7945,-4.7954,-4.8074,-4.7983,-4.7989,-4.7994,-4.7997,-4.8281,-4.8284,0,0,0,0,0,0,-4.7606,-4.7626,-4.7792,-4.7799,-4.7683,-4.7762,-4.7775,-4.7815,-4.7878,-4.7885,-4.7831,-4.7827,-4.7934,-4.7946,-4.7958,-4.8081,-4.7991,-4.7997,-4.8001,-4.8277,-4.8281,-4.8285,0,0,0,0,0,0,-4.7601,-4.7621,-4.7787,-4.7712,-4.7733,-4.7769,-4.7815,-4.7819,-4.7848,-4.7889,-4.7895,-4.7854,-4.7932,-4.7948,-4.8037,-4.8084,-4.8,-4.8007,-4.8273,-4.8279,-4.8283,-4.8328,0,0,0,0,0,0,-4.7595,-4.7619,-4.7658,-4.7713,-4.7737,-4.7865,-4.7818,-4.7823,-4.7861,-4.7857,-4.7913,-4.7919,-4.7931,-4.8027,-4.8044,-4.8093,-4.8012,-4.8269,-4.8276,-4.8282,-4.8322,-4.8334,-4.8344,0,0,0,0,0,-4.7587,-4.7665,-4.766,-4.768,-4.7786,-4.7868,-4.7881,-4.7894,-4.7865,-4.7904,-4.7931,-4.7917,-4.8077,-4.8036,-4.8055,-4.8107,-4.8266,-4.8274,-4.8281,-4.8317,-4.8331,-4.8343,0,0,0,0,0,0,-4.7612,-4.7672,-4.7667,-4.7766,-4.7812,-4.7864,-4.7913,-4.7908,-4.7963,-4.7957,-4.797,-4.7983,-4.8074,-4.81,-4.8053,-4.821,-4.8168,-4.8179,-4.8189,-4.8202,-4.8213,-4.8203,-4.8018,0,0,0,0,0,-4.763,-4.7692,-4.7741,-4.7823,-4.7847,-4.7877,-4.7912,-4.7919,-4.7967,-4.7986,-4.8019,-4.8066,-4.8127,-4.8166,-4.8225,-4.8327,-4.8339,-4.8373,-4.8383,-4.8392,-4.8401,-4.8458,-4.8474,-4.8309,-4.8309,-4.8309,0,0,-4.7666,-4.7706,-4.7744,-4.7829,-4.7865,-4.7929,-4.7893,-4.7961,-4.8008,-4.7996,-4.8082,-4.8109,-4.8162,-4.8259,-4.8303,-4.8283,-4.845,-4.8401,-4.8408,-4.8412,-4.8467,-4.8483,-4.8497,-4.8314,-4.8313,-4.8313,0,0,-4.7763,-4.78,-4.7873,-4.7912,-4.7969,-4.7989,-4.8007,-4.8061,-4.8079,-4.8167,-4.8159,-4.8216,-4.8321,-4.8359,-4.8392,-4.851,-4.85,-4.8529,-4.8583,-4.8639,-4.8652,-4.8663,-4.8705,-4.8719,-4.8538,-4.8538,-4.8539,0,-4.78,-4.7896,-4.7911,-4.7982,-4.8019,-4.8014,-4.8089,-4.8125,-4.8198,-4.8224,-4.8202,-4.8334,-4.837,-4.8476,-4.8505,-4.8532,-4.8553,-4.8521,-4.8649,-4.8661,-4.8671,-4.8711,-4.8727,-4.8541,-4.8541,-4.8541,-4.8541,0,-4.7938,-4.8006,-4.8058,-4.813,-4.8174,-4.8246,-4.8273,-4.8316,-4.8321,-4.8343,-4.8434,-4.8477,-4.8544,-4.8571,-4.8574,-4.8679,-4.8665,-4.8646,-4.8603,-4.869,-4.8727,-4.8743,-4.8546,-4.8545,-4.8544,-4.8543,0,0,-4.805,-4.8134,-4.8152,-4.8186,-4.8251,-4.8302,-4.8376,-4.8443,-4.848,-4.8532,-4.8593,-4.8684,-4.8668,-4.8706,-4.8714,-4.8764,-4.8854,-4.8739,-4.874,-4.8758,-4.8972,-4.8984,-4.9001,-4.885,-4.8853,-4.8855,-4.8967,0,-4.8153,-4.8282,-4.83,-4.8414,-4.8476,-4.8475,-4.8538,-4.8585,-4.861,-4.8666,-4.8693,-4.8757,-4.8731,-4.8754,-4.8804,-4.8833,-4.8897,-4.8825,-4.8906,-4.8908,-4.889,-4.9021,-4.9034,-4.9137,-4.8982,-4.8984,-4.8986,0,-4.8288,-4.8346,-4.8466,-4.8525,-4.8552,-4.8609,-4.8674,-4.8729,-4.8782,-4.8797,-4.8842,-4.8845,-4.8921,-4.8879,-4.8984,-4.8935,-4.897,-4.899,-4.8994,-4.9,-4.895,-4.9029,-4.917,-4.9185,-4.901,-4.9008,-4.9006,0,-4.8357,-4.8465,-4.8551,-4.858,-4.8651,-4.8691,-4.8722,-4.8774,-4.8814,-4.8872,-4.8898,-4.8963,-4.8998,-4.9049,-4.907,-4.9038,-4.9174,-4.9133,-4.9188,-4.9187,-4.9214,-4.9211,-4.9361,-4.924,-4.924,-4.924,-4.9239,0,-4.8468,-4.8542,-4.8583,-4.8636,-4.8719,-4.8741,-4.8822,-4.8852,-4.8899,-4.8958,-4.8961,-4.9016,-4.9042,-4.9102,-4.912,-4.9204,-4.922,-4.9234,-4.9237,-4.9232,-4.923,-4.9253,-4.9245,-4.9244,-4.9243,-4.9242,-4.9241,0,-4.8557,-4.8588,-4.8682,-4.8743,-4.876,-4.8818,-4.887,-4.8922,-4.8948,-4.9023,-4.9042,-4.9082,-4.9153,-4.918,-4.9266,-4.9278,-4.9375,-4.9374,-4.9357,-4.9357,-4.941,-4.9404,-4.9577,-4.9601,-4.9466,-4.9468,-4.9469,0,-4.8624,-4.8681,-4.875,-4.879,-4.8823,-4.8888,-4.893,-4.8955,-4.8999,-4.9067,-4.9111,-4.9182,-4.9239,-4.9352,-4.9389,-4.9455,-4.9454,-4.9511,-4.9464,-4.9458,-4.9454,-4.9449,-4.9455,-4.9518,-4.952,-4.9521,-4.9522,0,-4.8741,-4.8755,-4.8816,-4.8884,-4.8935,-4.8989,-4.9041,-4.9074,-4.9108,-4.9157,-4.923,-4.9275,-4.9365,-4.9435,-4.9504,-4.9536,-4.9535,-4.9537,-4.9553,-4.9547,-4.9534,-4.9541,-4.9379,-4.9532,-4.9531,-4.953,-4.953,-4.9529,-4.882,-4.8871,-4.8928,-4.8997,-4.904,-4.909,-4.9142,-4.9177,-4.9238,-4.9313,-4.9325,-4.9403,-4.9459,-4.9552,-4.9588,-4.9649,-4.9634,-4.9657,-4.9663,-4.9668,-4.9671,-4.9527,-4.9662,-4.9662,-4.9662,-4.9661,-4.9661,0,-4.8936,-4.8973,-4.9037,-4.9112,-4.9167,-4.9164,-4.9223,-4.9268,-4.9338,-4.939,-4.9448,-4.9533,-4.9603,-4.9647,-4.9717,-4.9758,-4.9759,-4.9775,-4.9771,-4.9779,-4.968,-4.9659,-4.9773,-4.9773,-4.9773,-4.9773,-4.9773,-4.9773,-4.9002,-4.9089,-4.911,-4.9219,-4.9256,-4.9333,-4.9368,-4.9414,-4.9457,-4.9552,-4.961,-4.964,-4.9689,-4.9764,-4.9827,-4.9839,-4.9864,-4.9881,-4.9891,-4.9797,-4.9785,-4.9774,-4.9754,-4.9886,-4.9887,-4.9984,-4.9984,-4.9985]},{"header":{"parameterUnit":"m.s-1","parameterCategory":1,"la1":30.2991,"la2":30.254,"lo1":-89.0895,"lo2":-89.0444,"dy":0.0017,"dx":0.0017,"nx":28,"ny":28,"refTime":"2024-04-08T21:00:00:Z","depth":0,"parameterNumber":3,"parameterNumberName":"V-component_of_WINDS"},"data":[0,0,0,0,0,0,0,0,0,0,0,0,0,0,0,0,0,0,0,0,0,0,0,0,0,0,0,0,0,0,0,0,0,0,0,0,0,0,0,0,0,0,0,0,0,0,0,0,0,0,0,0,0,0,0,0,0,0,3.3638,3.3639,0,3.3719,3.372,3.3721,3.3784,3.3785,3.3786,3.3786,3.3867,3.3868,3.387,0,0,0,0,0,0,0,0,0,0,0,0,0,3.3539,3.354,3.3638,3.3639,3.364,3.3719,3.372,3.3721,3.3784,3.3785,3.3786,3.3787,3.3866,3.3868,3.387,0,0,0,0,0,0,0,0,0,0,0,0,0,3.3597,3.3541,3.3638,3.3681,3.3686,3.3719,3.372,3.3722,3.3784,3.3785,3.3786,3.3787,3.3865,3.3868,3.387,3.3866,0,0,3.3877,3.3878,0,0,0,0,0,0,0,0,3.3593,3.36,3.3674,3.3678,3.3684,3.3743,3.3715,3.377,3.3784,3.3747,3.3786,3.3787,3.3824,3.383,3.3843,3.3869,3.3873,3.3877,3.3879,3.388,3.388,0,0,0,0,0,0,0,3.3589,3.3597,3.367,3.3675,3.3681,3.3697,3.3706,3.3725,3.3779,3.375,3.3755,3.3764,3.3827,3.3841,3.3846,3.3874,3.3877,3.3879,3.3881,3.3882,3.3905,3.3904,0,0,0,0,0,0,3.3579,3.3594,3.3668,3.3673,3.364,3.3698,3.3708,3.3723,3.3779,3.3789,3.3763,3.3766,3.3836,3.3843,3.3849,3.385,3.388,3.3882,3.3883,3.3906,3.3905,3.3904,0,0,0,0,0,0,3.3576,3.3585,3.3664,3.3635,3.3646,3.3699,3.3714,3.3724,3.3738,3.3789,3.3799,3.3767,3.3837,3.3845,3.3862,3.3854,3.3883,3.3885,3.3907,3.3905,3.3904,3.3851,0,0,0,0,0,0,3.3573,3.3584,3.3582,3.3634,3.3647,3.3676,3.3714,3.3725,3.3742,3.3747,3.3795,3.3804,3.3839,3.3858,3.3864,3.3857,3.3887,3.3908,3.3906,3.3905,3.3854,3.3848,3.3843,0,0,0,0,0,3.3569,3.3562,3.3582,3.359,3.3647,3.3676,3.3683,3.3724,3.3741,3.374,3.3774,3.3803,3.3853,3.3859,3.3867,3.386,3.3908,3.3906,3.3905,3.3856,3.3849,3.3843,0,0,0,0,0,0,3.3506,3.357,3.3592,3.3601,3.3633,3.3686,3.3686,3.3715,3.3741,3.3745,3.3794,3.3804,3.3816,3.384,3.3845,3.3861,3.3885,3.3884,3.3845,3.3839,3.3834,3.3828,3.3889,0,0,0,0,0,3.3494,3.3512,3.3567,3.357,3.3585,3.3633,3.3647,3.3676,3.371,3.3723,3.3758,3.3789,3.3813,3.3827,3.3851,3.3858,3.387,3.3857,3.3852,3.3847,3.3846,3.3855,3.385,3.3898,3.3898,3.3898,0,0,3.3467,3.3505,3.3513,3.3558,3.3586,3.3605,3.3643,3.366,3.3675,3.3725,3.3745,3.3771,3.381,3.3822,3.3829,3.3842,3.3836,3.3845,3.3841,3.3843,3.3852,3.3848,3.3844,3.3897,3.3897,3.3897,0,0,3.343,3.3458,3.3466,3.3494,3.3536,3.3569,3.3571,3.3621,3.3641,3.3661,3.37,3.3718,3.3757,3.3784,3.3803,3.3779,3.3807,3.3785,3.3758,3.3766,3.3762,3.3759,3.3753,3.3749,3.3784,3.3784,3.3784,0,3.3391,3.3421,3.3466,3.3482,3.3502,3.3551,3.356,3.3584,3.3631,3.3644,3.3659,3.3711,3.374,3.3761,3.3755,3.3768,3.3773,3.378,3.3759,3.3756,3.3754,3.3749,3.3746,3.3781,3.3782,3.3782,3.3782,0,3.3374,3.3394,3.3395,3.3442,3.3462,3.3474,3.3521,3.3536,3.3564,3.3596,3.3617,3.3654,3.3688,3.3695,3.3721,3.3721,3.3728,3.375,3.3775,3.3746,3.3742,3.374,3.3777,3.3778,3.3779,3.378,0,0,3.3296,3.3371,3.337,3.3394,3.3446,3.3462,3.3478,3.3513,3.3526,3.3557,3.3573,3.3606,3.3628,3.3649,3.3679,3.3685,3.3668,3.3707,3.3709,3.37,3.3672,3.3656,3.3653,3.3687,3.3687,3.3686,3.367,0,3.3268,3.3299,3.3342,3.3359,3.338,3.3428,3.3441,3.3475,3.3505,3.3528,3.3561,3.3585,3.361,3.3624,3.3633,3.3668,3.3663,3.367,3.3702,3.3703,3.3692,3.3651,3.3633,3.3615,3.3668,3.3668,3.3667,0,3.3238,3.327,3.329,3.3344,3.3354,3.3365,3.3403,3.3423,3.3463,3.3485,3.3511,3.3544,3.3564,3.3586,3.3615,3.3619,3.3635,3.3655,3.3655,3.366,3.3684,3.3656,3.361,3.3608,3.3665,3.3665,3.3665,0,3.3183,3.3231,3.325,3.3268,3.333,3.3338,3.3364,3.3405,3.3424,3.3457,3.347,3.3504,3.3522,3.3548,3.359,3.3602,3.3616,3.3641,3.3635,3.3634,3.3636,3.3636,3.3594,3.3644,3.3644,3.3644,3.3644,0,3.3148,3.3158,3.3226,3.3238,3.3252,3.3301,3.3314,3.3344,3.3381,3.34,3.3443,3.346,3.3514,3.3538,3.3571,3.3591,3.3599,3.3618,3.3627,3.3615,3.3613,3.3626,3.3629,3.3644,3.3644,3.3644,3.3644,0,3.3088,3.3134,3.3158,3.3216,3.3231,3.3239,3.3289,3.3303,3.3337,3.3361,3.3369,3.3422,3.3452,3.3497,3.354,3.3563,3.3579,3.3592,3.3566,3.3571,3.3565,3.3565,3.3531,3.353,3.3579,3.3578,3.3578,0,3.3063,3.3073,3.3133,3.315,3.3175,3.3201,3.3222,3.3271,3.3292,3.334,3.3348,3.3382,3.3412,3.3459,3.3501,3.3535,3.3551,3.3537,3.3556,3.3545,3.3553,3.3553,3.3555,3.3532,3.3531,3.3531,3.353,0,3.3015,3.3038,3.3067,3.3105,3.3129,3.3161,3.3195,3.3206,3.3263,3.3283,3.3316,3.334,3.3386,3.342,3.346,3.3487,3.3519,3.3524,3.3525,3.3513,3.3499,3.3509,3.3555,3.3525,3.3525,3.3526,3.3526,3.3526,3.2973,3.2985,3.3031,3.3063,3.3094,3.3125,3.3142,3.318,3.3208,3.325,3.3278,3.331,3.3352,3.341,3.3436,3.3462,3.3475,3.3476,3.3477,3.3476,3.3473,3.3494,3.347,3.347,3.347,3.347,3.347,0,3.2929,3.2961,3.299,3.3038,3.3063,3.3092,3.3132,3.3151,3.3179,3.3217,3.3247,3.3285,3.332,3.3366,3.3403,3.3415,3.3431,3.3424,3.3424,3.343,3.3458,3.3455,3.3411,3.3411,3.3411,3.3411,3.3411,3.3411,3.2909,3.2932,3.2961,3.3001,3.3034,3.3066,3.3087,3.3117,3.3148,3.319,3.3219,3.3249,3.3291,3.3333,3.3366,3.3379,3.3391,3.338,3.3397,3.3422,3.3428,3.3433,3.343,3.3382,3.3382,3.3367,3.3367,3.3367]}]]